UAE725 OMDB-HTDA

Flight info

Callsign UAE725
Flight time 4h 35m
Altitude 41000
Route ANVIX R401 GIDIS G783 UKRAG L710 KUKDI/N0485F400 B400 VEDET UL437 ELAVA DUKBO1C
Aircraft A359/H-SDE2E3GHIJ1J3J4J5LM1ORWXY/LB1D1

Departure

Time 2026-04-19 04:46
Airport Dubai International Airport (OMDB)

Arrival

Time 2026-04-19 09:21
Airport Julius Nyerere International Airport (HTDA)
Time Latitude Longitude Altitude Speed Heading
2026-04-19 04:36 25.24638 55.36657 27 ft 0 kts 276°
2026-04-19 04:39 25.24637 55.36673 25 ft 3 kts 275°
2026-04-19 04:39 25.24635 55.36693 25 ft 3 kts 275°
2026-04-19 04:40 25.24633 55.36713 27 ft 3 kts 275°
2026-04-19 04:40 25.24631 55.36735 27 ft 3 kts 261°
2026-04-19 04:40 25.24639 55.36756 25 ft 3 kts 218°
2026-04-19 04:40 25.24642 55.36759 25 ft 0 kts 209°
2026-04-19 04:41 25.24639 55.36757 25 ft 5 kts 209°
2026-04-19 04:42 25.24561 55.36751 27 ft 13 kts 145°
2026-04-19 04:42 25.24483 55.36762 27 ft 12 kts 205°
2026-04-19 04:42 25.24376 55.36735 27 ft 21 kts 145°
2026-04-19 04:42 25.24273 55.36907 27 ft 33 kts 122°
2026-04-19 04:43 25.24135 55.37151 27 ft 43 kts 121°
2026-04-19 04:43 25.23979 55.37433 27 ft 39 kts 114°
2026-04-19 04:43 25.24083 55.37656 27 ft 35 kts 30°
2026-04-19 04:43 25.24267 55.37777 27 ft 29 kts 32°
2026-04-19 04:44 25.24389 55.37866 29 ft 13 kts 33°
2026-04-19 04:44 25.24430 55.37897 30 ft 10 kts 35°
2026-04-19 04:44 25.24558 55.37994 30 ft 35 kts 34°
2026-04-19 04:44 25.24746 55.38098 32 ft 24 kts 345°
2026-04-19 04:45 25.24854 55.37942 31 ft 41 kts 302°
2026-04-19 04:45 25.25130 55.37442 33 ft 110 kts 301°
2026-04-19 04:45 25.25635 55.36530 33 ft 166 kts 301°
2026-04-19 04:45 25.26271 55.35404 533 ft 178 kts 301°
2026-04-19 04:46 25.26977 55.34129 820 ft 213 kts 301°
2026-04-19 04:46 25.27831 55.32583 978 ft 254 kts 301°
2026-04-19 04:46 25.28771 55.30852 1705 ft 263 kts 299°
2026-04-19 04:46 25.29251 55.28946 2435 ft 269 kts 271°
2026-04-19 04:47 25.28778 55.26857 2723 ft 289 kts 246°
2026-04-19 04:47 25.27849 55.24877 3114 ft 299 kts 243°
2026-04-19 04:47 25.26874 55.22826 3635 ft 303 kts 244°
2026-04-19 04:47 25.25918 55.20728 4200 ft 305 kts 245°
2026-04-19 04:48 25.24901 55.18666 4772 ft 309 kts 237°
2026-04-19 04:48 25.23449 55.16902 5326 ft 312 kts 219°
2026-04-19 04:48 25.21511 55.15817 5860 ft 317 kts 195°
2026-04-19 04:48 25.19316 55.15545 6426 ft 319 kts 180°
2026-04-19 04:49 25.17117 55.15668 6924 ft 322 kts 174°
2026-04-19 04:49 25.14887 55.15993 7407 ft 325 kts 171°
2026-04-19 04:49 25.12642 55.16394 7890 ft 329 kts 171°
2026-04-19 04:49 25.10373 55.16805 8401 ft 332 kts 171°
2026-04-19 04:50 25.08077 55.17194 8907 ft 335 kts 172°
2026-04-19 04:50 25.05751 55.17556 9423 ft 339 kts 173°
2026-04-19 04:50 25.03403 55.17898 9920 ft 342 kts 173°
2026-04-19 04:50 25.01031 55.18228 10396 ft 344 kts 173°
2026-04-19 04:51 24.98648 55.18554 10893 ft 346 kts 174°
2026-04-19 04:51 24.96251 55.18879 11381 ft 348 kts 174°
2026-04-19 04:51 24.93840 55.19206 11855 ft 350 kts 174°
2026-04-19 04:51 24.91414 55.19536 12302 ft 353 kts 174°
2026-04-19 04:52 24.88955 55.19871 12618 ft 361 kts 174°
2026-04-19 04:52 24.86434 55.20214 12824 ft 371 kts 174°
2026-04-19 04:52 24.83842 55.20568 13064 ft 379 kts 174°
2026-04-19 04:52 24.81214 55.20928 13424 ft 382 kts 174°
2026-04-19 04:53 24.78560 55.21292 13829 ft 384 kts 174°
2026-04-19 04:53 24.75898 55.21657 14167 ft 387 kts 174°
2026-04-19 04:53 24.73217 55.22024 14499 ft 390 kts 174°
2026-04-19 04:53 24.70512 55.22394 14840 ft 392 kts 174°
2026-04-19 04:54 24.67795 55.22765 15167 ft 395 kts 174°
2026-04-19 04:54 24.65095 55.23134 15506 ft 397 kts 174°
2026-04-19 04:54 24.62309 55.23514 15865 ft 399 kts 174°
2026-04-19 04:54 24.59580 55.23887 16218 ft 402 kts 174°
2026-04-19 04:55 24.56761 55.24271 16579 ft 404 kts 174°
2026-04-19 04:55 24.54001 55.24647 16930 ft 406 kts 174°
2026-04-19 04:55 24.51182 55.25031 17280 ft 408 kts 174°
2026-04-19 04:55 24.48353 55.25417 17633 ft 411 kts 174°
2026-04-19 04:56 24.45512 55.25803 17989 ft 413 kts 175°
2026-04-19 04:56 24.42652 55.26192 18308 ft 415 kts 175°
2026-04-19 04:56 24.39776 55.26584 18607 ft 417 kts 174°
2026-04-19 04:56 24.36889 55.26976 18940 ft 418 kts 174°
2026-04-19 04:57 24.33988 55.27371 19253 ft 420 kts 175°
2026-04-19 04:57 24.31081 55.27766 19558 ft 422 kts 175°
2026-04-19 04:57 24.28160 55.28162 19871 ft 424 kts 175°
2026-04-19 04:57 24.25229 55.28560 20165 ft 425 kts 175°
2026-04-19 04:58 24.22293 55.28958 20469 ft 427 kts 175°
2026-04-19 04:58 24.19332 55.29360 20756 ft 429 kts 175°
2026-04-19 04:58 24.16370 55.29761 21031 ft 431 kts 175°
2026-04-19 04:58 24.13388 55.30165 21320 ft 433 kts 175°
2026-04-19 04:59 24.10395 55.30570 21620 ft 434 kts 175°
2026-04-19 04:59 24.07391 55.30976 21896 ft 436 kts 175°
2026-04-19 04:59 24.04415 55.31378 22172 ft 438 kts 175°
2026-04-19 04:59 24.01386 55.31788 22448 ft 439 kts 175°
2026-04-19 05:00 23.98340 55.32200 22717 ft 441 kts 175°
2026-04-19 05:00 23.95289 55.32612 22981 ft 443 kts 175°
2026-04-19 05:00 23.92224 55.33026 23243 ft 444 kts 175°
2026-04-19 05:00 23.89150 55.33441 23508 ft 446 kts 175°
2026-04-19 05:01 23.86064 55.33857 23718 ft 448 kts 175°
2026-04-19 05:01 23.82965 55.34275 23924 ft 449 kts 175°
2026-04-19 05:01 23.79848 55.34695 24133 ft 451 kts 175°
2026-04-19 05:01 23.76736 55.35114 24338 ft 453 kts 175°
2026-04-19 05:02 23.73605 55.35535 24550 ft 454 kts 175°
2026-04-19 05:02 23.70465 55.35957 24758 ft 455 kts 175°
2026-04-19 05:02 23.67313 55.36381 24948 ft 457 kts 175°
2026-04-19 05:02 23.64190 55.36801 25136 ft 459 kts 175°
2026-04-19 05:03 23.61013 55.37228 25343 ft 461 kts 175°
2026-04-19 05:03 23.57820 55.37657 25557 ft 462 kts 175°
2026-04-19 05:03 23.54624 55.38086 25762 ft 464 kts 175°
2026-04-19 05:03 23.51430 55.38643 25960 ft 467 kts 169°
2026-04-19 05:04 23.48259 55.39441 26179 ft 469 kts 168°
2026-04-19 05:04 23.45081 55.40307 26397 ft 471 kts 168°
2026-04-19 05:04 23.41907 55.41210 26585 ft 473 kts 167°
2026-04-19 05:04 23.38726 55.42164 26776 ft 475 kts 166°
2026-04-19 05:05 23.35583 55.43165 27001 ft 477 kts 165°
2026-04-19 05:05 23.32405 55.44199 27216 ft 478 kts 165°
2026-04-19 05:05 23.29203 55.45240 27437 ft 480 kts 165°
2026-04-19 05:05 23.25994 55.46276 27668 ft 482 kts 166°
2026-04-19 05:06 23.22770 55.47306 27901 ft 484 kts 166°
2026-04-19 05:06 23.19534 55.48333 28135 ft 486 kts 166°
2026-04-19 05:06 23.16282 55.49359 28355 ft 488 kts 166°
2026-04-19 05:06 23.13017 55.50387 28591 ft 489 kts 166°
2026-04-19 05:07 23.09740 55.51418 28826 ft 491 kts 166°
2026-04-19 05:07 23.06443 55.52454 29082 ft 493 kts 166°
2026-04-19 05:07 23.03137 55.53494 29364 ft 494 kts 166°
2026-04-19 05:07 22.99829 55.54531 29614 ft 496 kts 166°
2026-04-19 05:08 22.96502 55.55555 29851 ft 498 kts 167°
2026-04-19 05:08 22.89802 55.57597 30297 ft 502 kts 166°
2026-04-19 05:08 22.86470 55.58613 30522 ft 504 kts 166°
2026-04-19 05:09 22.83090 55.59646 30754 ft 506 kts 166°
2026-04-19 05:09 22.79690 55.60687 30985 ft 508 kts 166°
2026-04-19 05:09 22.76285 55.61729 31232 ft 509 kts 166°
2026-04-19 05:09 22.72870 55.62775 31456 ft 511 kts 166°
2026-04-19 05:10 22.69443 55.63824 31670 ft 513 kts 166°
2026-04-19 05:10 22.66004 55.64877 31891 ft 515 kts 166°
2026-04-19 05:10 22.62551 55.65933 32084 ft 516 kts 166°
2026-04-19 05:10 22.59081 55.66998 32300 ft 518 kts 166°
2026-04-19 05:11 22.55646 55.68051 32509 ft 520 kts 166°
2026-04-19 05:11 22.52160 55.69117 32709 ft 521 kts 166°
2026-04-19 05:11 22.48656 55.70187 32911 ft 523 kts 166°
2026-04-19 05:11 22.45148 55.71259 33109 ft 525 kts 166°
2026-04-19 05:12 22.41628 55.72333 33262 ft 527 kts 166°
2026-04-19 05:12 22.38083 55.73415 33425 ft 529 kts 166°
2026-04-19 05:12 22.34540 55.74496 33700 ft 529 kts 166°
2026-04-19 05:12 22.30994 55.75578 33995 ft 528 kts 166°
2026-04-19 05:13 22.27448 55.76619 34201 ft 528 kts 169°
2026-04-19 05:13 22.23834 55.77275 34375 ft 527 kts 175°
2026-04-19 05:13 22.20192 55.77731 34561 ft 527 kts 177°
2026-04-19 05:13 22.16581 55.78120 34714 ft 528 kts 178°
2026-04-19 05:14 22.12914 55.78481 34901 ft 530 kts 178°
2026-04-19 05:14 22.09248 55.78831 35169 ft 528 kts 178°
2026-04-19 05:14 22.05568 55.79182 35382 ft 529 kts 178°
2026-04-19 05:14 22.01906 55.79533 35574 ft 530 kts 178°
2026-04-19 05:15 21.98221 55.79892 35768 ft 531 kts 178°
2026-04-19 05:15 21.94538 55.80254 35967 ft 532 kts 178°
2026-04-19 05:15 21.92093 55.80495 36070 ft 532 kts 178°
2026-04-19 05:15 21.87144 55.80986 36274 ft 535 kts 178°
2026-04-19 05:16 21.84683 55.81230 36387 ft 536 kts 178°
2026-04-19 05:16 21.80959 55.81600 36595 ft 537 kts 178°
2026-04-19 05:16 21.76032 55.82089 36846 ft 538 kts 178°
2026-04-19 05:16 21.73502 55.82339 36996 ft 538 kts 178°
2026-04-19 05:17 21.69821 55.82704 37185 ft 539 kts 179°
2026-04-19 05:17 21.66084 55.83078 37381 ft 540 kts 179°
2026-04-19 05:17 21.62339 55.83446 37516 ft 541 kts 179°
2026-04-19 05:17 21.58577 55.83814 37701 ft 542 kts 179°
2026-04-19 05:18 21.54809 55.84181 37884 ft 543 kts 179°
2026-04-19 05:18 21.51046 55.84549 38083 ft 543 kts 179°
2026-04-19 05:18 21.47271 55.84918 38261 ft 544 kts 179°
2026-04-19 05:18 21.43540 55.85283 38449 ft 545 kts 179°
2026-04-19 05:19 21.39764 55.85653 38614 ft 545 kts 179°
2026-04-19 05:19 21.35984 55.86023 38769 ft 545 kts 179°
2026-04-19 05:19 21.32207 55.86394 38962 ft 545 kts 179°
2026-04-19 05:19 21.28436 55.86764 39163 ft 543 kts 179°
2026-04-19 05:20 21.24665 55.87134 39357 ft 543 kts 179°
2026-04-19 05:20 21.20916 55.87501 39540 ft 542 kts 179°
2026-04-19 05:20 21.17156 55.87867 39715 ft 541 kts 179°
2026-04-19 05:20 21.13409 55.88231 39883 ft 540 kts 179°
2026-04-19 05:21 21.09664 55.88595 40003 ft 541 kts 179°
2026-04-19 05:21 21.05917 55.88958 40132 ft 540 kts 179°
2026-04-19 05:21 21.02173 55.89322 40282 ft 540 kts 179°
2026-04-19 05:21 20.98475 55.89681 40441 ft 539 kts 179°
2026-04-19 05:22 20.94692 55.90049 40586 ft 539 kts 179°
2026-04-19 05:22 20.90961 55.90411 40719 ft 538 kts 179°
2026-04-19 05:22 20.87233 55.90773 40855 ft 538 kts 179°
2026-04-19 05:23 20.79787 55.91500 40959 ft 538 kts 179°
2026-04-19 05:23 20.72373 55.92216 40965 ft 538 kts 179°
2026-04-19 05:24 20.64903 55.92937 40962 ft 538 kts 179°
2026-04-19 05:24 20.57449 55.93658 40948 ft 538 kts 180°
2026-04-19 05:25 20.49989 55.94379 40967 ft 538 kts 180°
2026-04-19 05:25 20.42523 55.95100 40963 ft 539 kts 180°
2026-04-19 05:26 20.35057 55.95820 40951 ft 539 kts 180°
2026-04-19 05:26 20.27589 55.96544 40941 ft 539 kts 180°
2026-04-19 05:27 20.20165 55.97251 40957 ft 539 kts 180°
2026-04-19 05:27 20.12681 55.97957 40964 ft 539 kts 180°
2026-04-19 05:28 20.05204 55.98620 40961 ft 538 kts 182°
2026-04-19 05:28 19.97737 55.98809 40960 ft 536 kts 185°
2026-04-19 05:29 19.90285 55.98873 40963 ft 536 kts 185°
2026-04-19 05:29 19.82811 55.99002 40963 ft 537 kts 184°
2026-04-19 05:30 19.75375 55.99179 40953 ft 537 kts 184°
2026-04-19 05:30 19.67897 55.99370 40966 ft 538 kts 184°
2026-04-19 05:31 19.60406 55.99561 40961 ft 538 kts 184°
2026-04-19 05:31 19.52961 55.99360 40963 ft 528 kts 195°
2026-04-19 05:31 19.49412 55.98489 40964 ft 517 kts 206°
2026-04-19 05:32 19.46123 55.97035 40963 ft 507 kts 215°
2026-04-19 05:32 19.39958 55.93475 40966 ft 504 kts 218°
2026-04-19 05:33 19.33925 55.89758 40966 ft 504 kts 218°
2026-04-19 05:33 19.27853 55.86025 40968 ft 505 kts 218°
2026-04-19 05:34 19.21753 55.82317 40969 ft 505 kts 218°
2026-04-19 05:34 19.15645 55.78624 40971 ft 505 kts 217°
2026-04-19 05:35 19.09538 55.74938 40974 ft 506 kts 218°
2026-04-19 05:35 19.03422 55.71248 40974 ft 506 kts 218°
2026-04-19 05:36 18.97303 55.67561 40970 ft 506 kts 218°
2026-04-19 05:36 18.91213 55.63891 40971 ft 506 kts 218°
2026-04-19 05:37 18.85094 55.60208 40974 ft 506 kts 218°
2026-04-19 05:37 18.78968 55.56524 40973 ft 506 kts 217°
2026-04-19 05:38 18.72849 55.52848 40975 ft 506 kts 217°
2026-04-19 05:38 18.66720 55.49169 40974 ft 506 kts 218°
2026-04-19 05:39 18.60628 55.45515 40976 ft 507 kts 218°
2026-04-19 05:39 18.54499 55.41841 40977 ft 507 kts 218°
2026-04-19 05:40 18.48370 55.38172 40979 ft 507 kts 217°
2026-04-19 05:40 18.42227 55.34496 40976 ft 507 kts 217°
2026-04-19 05:41 18.36130 55.30852 40981 ft 507 kts 217°
2026-04-19 05:41 18.29987 55.27189 40980 ft 507 kts 217°
2026-04-19 05:42 18.23846 55.23523 40978 ft 507 kts 218°
2026-04-19 05:42 18.17707 55.19861 40966 ft 507 kts 217°
2026-04-19 05:43 18.11363 55.16510 40977 ft 513 kts 212°
2026-04-19 05:43 18.04804 55.13511 40981 ft 514 kts 211°
2026-04-19 05:44 17.98212 55.10568 40981 ft 515 kts 210°
2026-04-19 05:44 17.91612 55.07623 40981 ft 515 kts 211°
2026-04-19 05:45 17.85060 55.04690 40969 ft 515 kts 210°
2026-04-19 05:45 17.78476 55.01741 40983 ft 514 kts 210°
2026-04-19 05:46 17.71896 54.98794 40984 ft 514 kts 210°
2026-04-19 05:46 17.65314 54.95850 40985 ft 514 kts 210°
2026-04-19 05:47 17.58724 54.92904 40983 ft 514 kts 210°
2026-04-19 05:47 17.52142 54.89963 40988 ft 514 kts 210°
2026-04-19 05:48 17.45600 54.87044 41005 ft 514 kts 210°
2026-04-19 05:48 17.39024 54.84113 40986 ft 514 kts 210°
2026-04-19 05:49 17.32453 54.81185 41002 ft 514 kts 210°
2026-04-19 05:49 17.26023 54.78002 40998 ft 505 kts 219°
2026-04-19 05:50 17.20047 54.74152 40983 ft 503 kts 220°
2026-04-19 05:50 17.14193 54.70221 40983 ft 503 kts 220°
2026-04-19 05:51 17.08316 54.66261 40982 ft 502 kts 220°
2026-04-19 05:51 17.02427 54.62313 40974 ft 503 kts 220°
2026-04-19 05:52 16.96537 54.58378 40976 ft 503 kts 220°
2026-04-19 05:52 16.90635 54.54440 40954 ft 503 kts 220°
2026-04-19 05:53 16.84741 54.50516 40958 ft 503 kts 220°
2026-04-19 05:53 16.78836 54.46577 40957 ft 503 kts 220°
2026-04-19 05:54 16.72940 54.42644 40954 ft 503 kts 220°
2026-04-19 05:54 16.67033 54.38710 40952 ft 503 kts 220°
2026-04-19 05:55 16.61137 54.34787 40953 ft 503 kts 220°
2026-04-19 05:55 16.55228 54.30859 40950 ft 503 kts 219°
2026-04-19 05:56 16.49321 54.26936 40958 ft 503 kts 219°
2026-04-19 05:56 16.43415 54.23015 40956 ft 503 kts 219°
2026-04-19 05:57 16.37550 54.19125 40963 ft 503 kts 219°
2026-04-19 05:57 16.31644 54.15210 40964 ft 503 kts 219°
2026-04-19 05:58 16.25737 54.11298 40955 ft 503 kts 219°
2026-04-19 05:58 16.19823 54.07383 40971 ft 503 kts 219°
2026-04-19 05:59 16.13911 54.03473 40967 ft 503 kts 219°
2026-04-19 05:59 16.08037 53.99591 40973 ft 503 kts 219°
2026-04-19 06:00 16.02120 53.95683 40970 ft 503 kts 219°
2026-04-19 06:00 15.96206 53.91779 40969 ft 504 kts 219°
2026-04-19 06:01 15.90283 53.87873 40978 ft 503 kts 219°
2026-04-19 06:01 15.84415 53.83996 40977 ft 503 kts 219°
2026-04-19 06:02 15.78530 53.80057 40977 ft 503 kts 219°
2026-04-19 06:02 15.72644 53.76110 40980 ft 503 kts 219°
2026-04-19 06:03 15.66765 53.72179 40977 ft 503 kts 219°
2026-04-19 06:03 15.60918 53.68277 40980 ft 503 kts 219°
2026-04-19 06:04 15.55029 53.64352 40978 ft 503 kts 219°
2026-04-19 06:04 15.49143 53.60431 40978 ft 503 kts 219°
2026-04-19 06:05 15.43257 53.56513 40979 ft 503 kts 219°
2026-04-19 06:05 15.38328 53.53301 40980 ft 504 kts 218°
2026-04-19 06:06 15.32357 53.49496 40978 ft 504 kts 218°
2026-04-19 06:06 15.26377 53.45686 40979 ft 504 kts 218°
2026-04-19 06:07 15.20405 53.41868 40979 ft 504 kts 218°
2026-04-19 06:07 15.14445 53.38053 40980 ft 504 kts 218°
2026-04-19 06:08 15.08483 53.34238 40979 ft 504 kts 218°
2026-04-19 06:08 15.02560 53.30451 40979 ft 504 kts 218°
2026-04-19 06:09 14.96590 53.26637 40981 ft 504 kts 218°
2026-04-19 06:09 14.90625 53.22829 40981 ft 504 kts 218°
2026-04-19 06:10 14.84658 53.19021 40983 ft 504 kts 218°
2026-04-19 06:10 14.78689 53.15216 40981 ft 504 kts 218°
2026-04-19 06:11 14.72715 53.11409 40976 ft 504 kts 218°
2026-04-19 06:11 14.66744 53.07608 40980 ft 504 kts 218°
2026-04-19 06:12 14.57833 53.01901 40980 ft 504 kts 218°
2026-04-19 06:12 14.51881 52.98069 40979 ft 503 kts 218°
2026-04-19 06:13 14.45928 52.94243 40979 ft 503 kts 218°
2026-04-19 06:13 14.39980 52.90427 40979 ft 503 kts 218°
2026-04-19 06:14 14.34031 52.86614 40979 ft 503 kts 218°
2026-04-19 06:14 14.28114 52.82824 40975 ft 503 kts 218°
2026-04-19 06:15 14.22161 52.79013 40976 ft 503 kts 218°
2026-04-19 06:15 14.16215 52.75209 40977 ft 503 kts 218°
2026-04-19 06:16 14.10263 52.71403 40979 ft 503 kts 218°
2026-04-19 06:16 14.04316 52.67603 40979 ft 503 kts 218°
2026-04-19 06:17 13.98401 52.63826 40966 ft 503 kts 218°
2026-04-19 06:17 13.92453 52.60030 40977 ft 503 kts 217°
2026-04-19 06:18 13.86499 52.56233 40980 ft 503 kts 217°
2026-04-19 06:18 13.80546 52.52438 40979 ft 503 kts 217°
2026-04-19 06:19 13.74592 52.48645 40977 ft 503 kts 217°
2026-04-19 06:19 13.68638 52.44855 40979 ft 503 kts 217°
2026-04-19 06:20 13.62722 52.41090 40979 ft 503 kts 217°
2026-04-19 06:20 13.56773 52.37307 40977 ft 503 kts 217°
2026-04-19 06:21 13.50821 52.33525 40979 ft 503 kts 217°
2026-04-19 06:21 13.44862 52.29740 40978 ft 503 kts 217°
2026-04-19 06:22 13.38901 52.25957 40977 ft 503 kts 217°
2026-04-19 06:22 13.32941 52.22183 40974 ft 503 kts 217°
2026-04-19 06:23 13.26981 52.18417 40974 ft 503 kts 217°
2026-04-19 06:23 13.21053 52.14674 40974 ft 503 kts 217°
2026-04-19 06:24 13.15085 52.10906 40974 ft 503 kts 217°
2026-04-19 06:24 13.09123 52.07144 40974 ft 503 kts 217°
2026-04-19 06:25 13.03153 52.03379 40974 ft 503 kts 216°
2026-04-19 06:25 12.97186 51.99617 40974 ft 503 kts 216°
2026-04-19 06:26 12.91259 51.95883 40975 ft 503 kts 216°
2026-04-19 06:26 12.85291 51.92126 40977 ft 503 kts 216°
2026-04-19 06:27 12.79322 51.88370 40974 ft 503 kts 216°
2026-04-19 06:27 12.73367 51.84625 40974 ft 503 kts 216°
2026-04-19 06:28 12.67397 51.80873 40971 ft 503 kts 216°
2026-04-19 06:28 12.61426 51.77122 40974 ft 503 kts 216°
2026-04-19 06:29 12.55459 51.73375 40971 ft 503 kts 216°
2026-04-19 06:29 12.49491 51.69631 40971 ft 503 kts 216°
2026-04-19 06:30 12.43564 51.65914 40972 ft 503 kts 216°
2026-04-19 06:30 12.37595 51.62173 40970 ft 503 kts 215°
2026-04-19 06:31 12.31619 51.58428 40968 ft 503 kts 215°
2026-04-19 06:31 12.25648 51.54690 40970 ft 503 kts 215°
2026-04-19 06:32 12.19671 51.50950 40966 ft 503 kts 215°
2026-04-19 06:32 12.13736 51.47238 40965 ft 503 kts 215°
2026-04-19 06:33 12.07758 51.43501 40966 ft 503 kts 215°
2026-04-19 06:33 12.01786 51.39771 40965 ft 503 kts 215°
2026-04-19 06:34 11.95815 51.36039 40969 ft 503 kts 215°
2026-04-19 06:34 11.89839 51.32304 40966 ft 503 kts 215°
2026-04-19 06:35 11.83871 51.28577 40966 ft 503 kts 215°
2026-04-19 06:35 11.77903 51.24852 40966 ft 503 kts 215°
2026-04-19 06:36 11.71934 51.21129 40973 ft 503 kts 214°
2026-04-19 06:36 11.65954 51.17401 40974 ft 503 kts 214°
2026-04-19 06:37 11.59977 51.13677 40983 ft 503 kts 214°
2026-04-19 06:37 11.54041 51.09980 40981 ft 503 kts 214°
2026-04-19 06:38 11.48065 51.06260 40982 ft 503 kts 214°
2026-04-19 06:38 11.42079 51.02535 40989 ft 503 kts 214°
2026-04-19 06:39 11.36090 50.98814 40993 ft 504 kts 214°
2026-04-19 06:39 11.30103 50.95085 40994 ft 504 kts 214°
2026-04-19 06:40 11.24157 50.91378 40996 ft 504 kts 214°
2026-04-19 06:40 11.18176 50.87655 40993 ft 504 kts 214°
2026-04-19 06:41 11.12189 50.83931 40998 ft 504 kts 214°
2026-04-19 06:41 11.06208 50.80213 40997 ft 504 kts 214°
2026-04-19 06:42 11.00227 50.76497 40998 ft 504 kts 214°
2026-04-19 06:42 10.94239 50.72778 40997 ft 504 kts 214°
2026-04-19 06:43 10.88290 50.69085 41000 ft 504 kts 214°
2026-04-19 06:43 10.82301 50.65370 40997 ft 504 kts 214°
2026-04-19 06:44 10.76312 50.61656 40990 ft 504 kts 214°
2026-04-19 06:44 10.70320 50.57942 40992 ft 504 kts 214°
2026-04-19 06:45 10.64334 50.54233 41004 ft 504 kts 214°
2026-04-19 06:45 10.58380 50.50546 40997 ft 504 kts 214°
2026-04-19 06:46 10.52385 50.46835 40994 ft 504 kts 214°
2026-04-19 06:46 10.46390 50.43126 41005 ft 504 kts 214°
2026-04-19 06:47 10.40390 50.39416 41009 ft 504 kts 214°
2026-04-19 06:47 10.34424 50.35728 40997 ft 505 kts 214°
2026-04-19 06:48 10.28421 50.32019 41008 ft 505 kts 214°
2026-04-19 06:48 10.22419 50.28313 41006 ft 505 kts 214°
2026-04-19 06:49 10.16418 50.24608 41002 ft 505 kts 213°
2026-04-19 06:49 10.10407 50.20899 40999 ft 505 kts 213°
2026-04-19 06:50 10.04400 50.17194 40998 ft 505 kts 213°
2026-04-19 06:50 9.98425 50.13511 41004 ft 505 kts 213°
2026-04-19 06:51 9.92403 50.09800 41001 ft 505 kts 213°
2026-04-19 06:51 9.86392 50.06097 41011 ft 505 kts 213°
2026-04-19 06:52 9.80387 50.02400 41017 ft 505 kts 213°
2026-04-19 06:52 9.75388 49.99324 41014 ft 505 kts 213°
2026-04-19 06:53 9.69369 49.95621 41014 ft 506 kts 213°
2026-04-19 06:53 9.63344 49.91916 41025 ft 506 kts 213°
2026-04-19 06:54 9.57358 49.88237 41022 ft 506 kts 213°
2026-04-19 06:54 9.51338 49.84538 41023 ft 506 kts 213°
2026-04-19 06:55 9.45315 49.80839 41013 ft 506 kts 213°
2026-04-19 06:55 9.39280 49.77134 41004 ft 506 kts 213°
2026-04-19 06:56 9.33296 49.73462 41020 ft 506 kts 213°
2026-04-19 06:56 9.27258 49.69758 41023 ft 506 kts 213°
2026-04-19 06:57 9.21229 49.66064 41009 ft 507 kts 213°
2026-04-19 06:57 9.15191 49.62368 41002 ft 507 kts 213°
2026-04-19 06:58 9.09146 49.58663 41010 ft 507 kts 213°
2026-04-19 06:58 9.03106 49.54964 41010 ft 507 kts 213°
2026-04-19 06:59 8.97060 49.51264 41006 ft 507 kts 213°
2026-04-19 06:59 8.91019 49.47570 41011 ft 507 kts 213°
2026-04-19 07:00 8.84986 49.43881 41006 ft 507 kts 213°
2026-04-19 07:00 8.78984 49.40212 41005 ft 507 kts 213°
2026-04-19 07:01 8.72942 49.36521 41003 ft 507 kts 213°
2026-04-19 07:01 8.66902 49.32833 41007 ft 507 kts 213°
2026-04-19 07:02 8.60854 49.29143 40999 ft 507 kts 213°
2026-04-19 07:02 8.54803 49.25456 40997 ft 507 kts 213°
2026-04-19 07:03 8.48761 49.21771 40999 ft 507 kts 213°
2026-04-19 07:03 8.42752 49.18108 40996 ft 507 kts 213°
2026-04-19 07:04 8.36709 49.14427 40989 ft 507 kts 213°
2026-04-19 07:04 8.30664 49.10747 40986 ft 507 kts 213°
2026-04-19 07:05 8.24616 49.07065 40998 ft 508 kts 213°
2026-04-19 07:05 8.18566 49.03384 40997 ft 508 kts 213°
2026-04-19 07:06 8.12549 48.99725 40991 ft 508 kts 213°
2026-04-19 07:06 8.06500 48.96048 41002 ft 507 kts 213°
2026-04-19 07:07 8.00452 48.92372 40994 ft 507 kts 212°
2026-04-19 07:07 7.94396 48.88692 40995 ft 507 kts 212°
2026-04-19 07:08 7.88342 48.85015 40992 ft 507 kts 212°
2026-04-19 07:08 7.82293 48.81343 40992 ft 507 kts 212°
2026-04-19 07:09 7.76236 48.77667 40980 ft 507 kts 212°
2026-04-19 07:09 7.70187 48.73997 40986 ft 507 kts 212°
2026-04-19 07:10 7.64177 48.70351 40988 ft 508 kts 212°
2026-04-19 07:10 7.58118 48.66677 40987 ft 508 kts 212°
2026-04-19 07:11 7.52066 48.63009 40984 ft 507 kts 212°
2026-04-19 07:11 7.46009 48.59340 40985 ft 507 kts 212°
2026-04-19 07:12 7.39953 48.55671 40979 ft 507 kts 212°
2026-04-19 07:12 7.33900 48.52006 40982 ft 508 kts 212°
2026-04-19 07:13 7.27897 48.48332 40976 ft 508 kts 213°
2026-04-19 07:13 7.21883 48.44602 40974 ft 508 kts 213°
2026-04-19 07:14 7.15860 48.40873 40974 ft 507 kts 213°
2026-04-19 07:14 7.09840 48.37158 40973 ft 507 kts 213°
2026-04-19 07:15 7.03818 48.33446 40973 ft 507 kts 212°
2026-04-19 07:16 6.94781 48.27880 40976 ft 507 kts 212°
2026-04-19 07:16 6.88795 48.24193 40976 ft 507 kts 212°
2026-04-19 07:17 6.82775 48.20487 40974 ft 507 kts 212°
2026-04-19 07:17 6.76761 48.16785 40974 ft 506 kts 212°
2026-04-19 07:18 6.70755 48.13089 40972 ft 506 kts 212°
2026-04-19 07:18 6.64743 48.09391 40973 ft 506 kts 212°
2026-04-19 07:19 6.58732 48.05694 40973 ft 506 kts 212°
2026-04-19 07:19 6.52728 48.02003 40970 ft 506 kts 212°
2026-04-19 07:20 6.46757 47.98333 40970 ft 505 kts 212°
2026-04-19 07:20 6.40755 47.94645 40970 ft 505 kts 212°
2026-04-19 07:21 6.34754 47.90959 40970 ft 505 kts 212°
2026-04-19 07:21 6.28762 47.87279 40973 ft 505 kts 212°
2026-04-19 07:22 6.22763 47.83596 40970 ft 505 kts 212°
2026-04-19 07:22 6.16764 47.79914 40960 ft 504 kts 212°
2026-04-19 07:23 6.10815 47.76263 40967 ft 504 kts 212°
2026-04-19 07:23 6.04826 47.72589 40970 ft 504 kts 212°
2026-04-19 07:24 5.98823 47.68908 40972 ft 504 kts 212°
2026-04-19 07:24 5.92827 47.65232 40968 ft 504 kts 212°
2026-04-19 07:25 5.86869 47.61580 40967 ft 504 kts 212°
2026-04-19 07:25 5.80872 47.57904 40963 ft 504 kts 212°
2026-04-19 07:26 5.74879 47.54233 40969 ft 505 kts 212°
2026-04-19 07:26 5.68891 47.50565 40968 ft 505 kts 212°
2026-04-19 07:27 5.62887 47.46898 40970 ft 505 kts 212°
2026-04-19 07:27 5.56864 47.43261 40966 ft 505 kts 211°
2026-04-19 07:28 5.50844 47.39634 40968 ft 504 kts 211°
2026-04-19 07:28 5.44869 47.36029 40967 ft 504 kts 211°
2026-04-19 07:29 5.38851 47.32397 40969 ft 505 kts 211°
2026-04-19 07:29 5.32834 47.28766 40966 ft 505 kts 211°
2026-04-19 07:30 5.26814 47.25133 40969 ft 505 kts 211°
2026-04-19 07:30 5.20783 47.21495 40967 ft 506 kts 211°
2026-04-19 07:31 5.14750 47.17857 40961 ft 506 kts 211°
2026-04-19 07:31 5.08718 47.14220 40968 ft 506 kts 211°
2026-04-19 07:32 5.02717 47.10603 40968 ft 506 kts 211°
2026-04-19 07:32 4.96681 47.06965 40965 ft 506 kts 211°
2026-04-19 07:33 4.90633 47.03320 40961 ft 507 kts 211°
2026-04-19 07:33 4.84583 46.99676 40957 ft 507 kts 211°
2026-04-19 07:34 4.78539 46.96036 40968 ft 507 kts 211°
2026-04-19 07:34 4.72530 46.92417 40968 ft 507 kts 211°
2026-04-19 07:35 4.66484 46.88778 40963 ft 506 kts 211°
2026-04-19 07:35 4.60442 46.85141 40967 ft 506 kts 211°
2026-04-19 07:36 4.54407 46.81509 40966 ft 506 kts 211°
2026-04-19 07:36 4.48367 46.77875 40963 ft 506 kts 211°
2026-04-19 07:37 4.42331 46.74244 40963 ft 506 kts 211°
2026-04-19 07:37 4.36347 46.70645 40964 ft 505 kts 211°
2026-04-19 07:38 4.30320 46.67021 40967 ft 504 kts 211°
2026-04-19 07:38 4.24307 46.63406 40966 ft 504 kts 211°
2026-04-19 07:39 4.18289 46.59788 40963 ft 504 kts 211°
2026-04-19 07:39 4.12265 46.56168 40964 ft 503 kts 211°
2026-04-19 07:40 4.06260 46.52559 40961 ft 503 kts 211°
2026-04-19 07:40 4.00257 46.48953 40965 ft 503 kts 211°
2026-04-19 07:41 3.94246 46.45342 40962 ft 503 kts 211°
2026-04-19 07:41 3.88282 46.41760 40960 ft 503 kts 211°
2026-04-19 07:42 3.83284 46.38759 40959 ft 503 kts 211°
2026-04-19 07:42 3.77281 46.35155 40959 ft 503 kts 211°
2026-04-19 07:43 3.71272 46.31548 40965 ft 503 kts 211°
2026-04-19 07:43 3.65261 46.27940 40963 ft 503 kts 211°
2026-04-19 07:44 3.59289 46.24356 40965 ft 503 kts 211°
2026-04-19 07:44 3.53287 46.20755 40963 ft 502 kts 211°
2026-04-19 07:45 3.47292 46.17158 40968 ft 502 kts 211°
2026-04-19 07:45 3.41289 46.13557 40965 ft 503 kts 211°
2026-04-19 07:46 3.35285 46.09957 40964 ft 503 kts 211°
2026-04-19 07:46 3.29281 46.06356 40963 ft 503 kts 210°
2026-04-19 07:47 3.23310 46.02776 40963 ft 503 kts 210°
2026-04-19 07:47 3.17304 45.99176 40959 ft 503 kts 210°
2026-04-19 07:48 3.11302 45.95578 40958 ft 503 kts 211°
2026-04-19 07:48 3.05291 45.91975 40955 ft 503 kts 211°
2026-04-19 07:49 2.99277 45.88372 40958 ft 503 kts 211°
2026-04-19 07:49 2.93268 45.84772 40957 ft 503 kts 211°
2026-04-19 07:50 2.87292 45.81191 40955 ft 503 kts 211°
2026-04-19 07:50 2.81281 45.77591 40958 ft 503 kts 211°
2026-04-19 07:51 2.75271 45.73991 40956 ft 503 kts 211°
2026-04-19 07:51 2.69262 45.70391 40954 ft 503 kts 210°
2026-04-19 07:52 2.63256 45.66796 40956 ft 503 kts 210°
2026-04-19 07:52 2.57250 45.63200 40958 ft 503 kts 210°
2026-04-19 07:53 2.51239 45.59601 40947 ft 503 kts 210°
2026-04-19 07:53 2.45233 45.56006 40948 ft 503 kts 210°
2026-04-19 07:54 2.39271 45.52438 40953 ft 503 kts 210°
2026-04-19 07:54 2.33268 45.48845 40951 ft 503 kts 210°
2026-04-19 07:55 2.27258 45.45248 40951 ft 503 kts 210°
2026-04-19 07:55 2.21247 45.41652 40951 ft 503 kts 210°
2026-04-19 07:56 2.15277 45.38080 40948 ft 503 kts 210°
2026-04-19 07:56 2.09268 45.34486 40960 ft 503 kts 210°
2026-04-19 07:57 2.03259 45.30891 40965 ft 502 kts 210°
2026-04-19 07:57 1.97326 45.27267 40966 ft 503 kts 213°
2026-04-19 07:58 1.91537 45.23326 40963 ft 503 kts 214°
2026-04-19 07:58 1.85779 45.19340 40957 ft 503 kts 214°
2026-04-19 07:59 1.80004 45.15402 40954 ft 502 kts 214°
2026-04-19 07:59 1.74244 45.11513 40951 ft 502 kts 213°
2026-04-19 08:00 1.68448 45.07610 40954 ft 502 kts 213°
2026-04-19 08:00 1.62643 45.03698 40952 ft 502 kts 213°
2026-04-19 08:01 1.56851 44.99795 40953 ft 502 kts 213°
2026-04-19 08:01 1.51057 44.95889 40942 ft 502 kts 213°
2026-04-19 08:02 1.45283 44.91996 40942 ft 502 kts 213°
2026-04-19 08:02 1.39490 44.88091 40938 ft 502 kts 213°
2026-04-19 08:03 1.33703 44.84191 40940 ft 502 kts 213°
2026-04-19 08:03 1.27918 44.80292 40944 ft 501 kts 213°
2026-04-19 08:04 1.22165 44.76415 40942 ft 501 kts 213°
2026-04-19 08:04 1.16379 44.72516 40943 ft 501 kts 213°
2026-04-19 08:05 1.10594 44.68618 40942 ft 501 kts 213°
2026-04-19 08:05 1.04810 44.64720 40945 ft 501 kts 214°
2026-04-19 08:06 0.99021 44.60820 40939 ft 501 kts 214°
2026-04-19 08:06 0.93240 44.56925 40938 ft 501 kts 213°
2026-04-19 08:07 0.87492 44.53052 40939 ft 501 kts 213°
2026-04-19 08:07 0.81705 44.49154 40938 ft 501 kts 213°
2026-04-19 08:08 0.75932 44.45264 40937 ft 501 kts 214°
2026-04-19 08:08 0.70146 44.41367 40937 ft 501 kts 214°
2026-04-19 08:09 0.64368 44.37474 40935 ft 501 kts 214°
2026-04-19 08:09 0.58592 44.33583 40932 ft 501 kts 214°
2026-04-19 08:10 0.52816 44.29692 40935 ft 501 kts 214°
2026-04-19 08:10 0.47074 44.25825 40935 ft 500 kts 214°
2026-04-19 08:11 0.41295 44.21932 40937 ft 500 kts 214°
2026-04-19 08:11 0.35525 44.18046 40936 ft 500 kts 214°
2026-04-19 08:12 0.29747 44.14149 40937 ft 500 kts 214°
2026-04-19 08:12 0.23995 44.10256 40936 ft 500 kts 214°
2026-04-19 08:13 0.18231 44.06353 40936 ft 500 kts 214°
2026-04-19 08:13 0.12516 44.02486 40928 ft 500 kts 214°
2026-04-19 08:14 0.06757 43.98589 40936 ft 500 kts 214°
2026-04-19 08:14 -0.01887 43.92739 40936 ft 500 kts 214°
2026-04-19 08:15 -0.07611 43.88867 40938 ft 499 kts 214°
2026-04-19 08:15 -0.13364 43.84973 40938 ft 499 kts 214°
2026-04-19 08:16 -0.19124 43.81076 40933 ft 499 kts 214°
2026-04-19 08:16 -0.24885 43.77177 40935 ft 500 kts 214°
2026-04-19 08:17 -0.30641 43.73282 40936 ft 500 kts 214°
2026-04-19 08:17 -0.36364 43.69410 40936 ft 499 kts 214°
2026-04-19 08:18 -0.42119 43.65515 40934 ft 499 kts 214°
2026-04-19 08:18 -0.47881 43.61616 40932 ft 500 kts 214°
2026-04-19 08:19 -0.53637 43.57721 40935 ft 500 kts 214°
2026-04-19 08:19 -0.59392 43.53826 40935 ft 500 kts 214°
2026-04-19 08:20 -0.65154 43.49927 40936 ft 500 kts 214°
2026-04-19 08:20 -0.70903 43.46035 40938 ft 500 kts 214°
2026-04-19 08:21 -0.76659 43.42140 40936 ft 500 kts 214°
2026-04-19 08:21 -0.82419 43.38242 40943 ft 499 kts 214°
2026-04-19 08:22 -0.88139 43.34370 40943 ft 499 kts 214°
2026-04-19 08:22 -0.93902 43.30469 40937 ft 499 kts 214°
2026-04-19 08:23 -0.99653 43.26576 40941 ft 499 kts 214°
2026-04-19 08:23 -1.05410 43.22679 40936 ft 499 kts 214°
2026-04-19 08:24 -1.11162 43.18785 40942 ft 499 kts 214°
2026-04-19 08:24 -1.16874 43.14918 40937 ft 499 kts 214°
2026-04-19 08:25 -1.22624 43.11025 40948 ft 499 kts 214°
2026-04-19 08:25 -1.28381 43.07127 40954 ft 499 kts 214°
2026-04-19 08:26 -1.34132 43.03233 40942 ft 499 kts 214°
2026-04-19 08:26 -1.39882 42.99340 40943 ft 499 kts 214°
2026-04-19 08:27 -1.45637 42.95443 40943 ft 499 kts 214°
2026-04-19 08:27 -1.51379 42.91554 40943 ft 498 kts 214°
2026-04-19 08:28 -1.57081 42.87692 40944 ft 498 kts 214°
2026-04-19 08:28 -1.62830 42.83799 40943 ft 498 kts 214°
2026-04-19 08:29 -1.68570 42.79910 40946 ft 498 kts 214°
2026-04-19 08:29 -1.74299 42.76029 40941 ft 497 kts 214°
2026-04-19 08:30 -1.80017 42.72156 40943 ft 496 kts 214°
2026-04-19 08:30 -1.85700 42.68306 40943 ft 496 kts 214°
2026-04-19 08:31 -1.91427 42.64425 40940 ft 496 kts 214°
2026-04-19 08:31 -1.97136 42.60556 40940 ft 496 kts 214°
2026-04-19 08:32 -2.02843 42.56680 40941 ft 495 kts 215°
2026-04-19 08:32 -2.08464 42.52783 40939 ft 494 kts 215°
2026-04-19 08:33 -2.14110 42.48846 40940 ft 494 kts 215°
2026-04-19 08:33 -2.19757 42.44921 40938 ft 494 kts 215°
2026-04-19 08:34 -2.25389 42.40964 40941 ft 494 kts 217°
2026-04-19 08:34 -2.30901 42.36872 40941 ft 492 kts 217°
2026-04-19 08:35 -2.36354 42.32795 40941 ft 492 kts 217°
2026-04-19 08:35 -2.41853 42.28718 40942 ft 492 kts 217°
2026-04-19 08:36 -2.46439 42.25333 40944 ft 492 kts 217°
2026-04-19 08:36 -2.51954 42.21267 40944 ft 492 kts 217°
2026-04-19 08:37 -2.57461 42.17207 40939 ft 491 kts 217°
2026-04-19 08:37 -2.62960 42.13151 40941 ft 490 kts 217°
2026-04-19 08:38 -2.68442 42.09106 40939 ft 490 kts 217°
2026-04-19 08:38 -2.73929 42.05057 40944 ft 490 kts 217°
2026-04-19 08:39 -2.79415 42.01008 40940 ft 490 kts 217°
2026-04-19 08:39 -2.84901 41.96959 40940 ft 490 kts 217°
2026-04-19 08:40 -2.90343 41.92942 40944 ft 488 kts 217°
2026-04-19 08:40 -2.95799 41.88914 40944 ft 487 kts 217°
2026-04-19 08:41 -3.01252 41.84887 40947 ft 487 kts 217°
2026-04-19 08:41 -3.06706 41.80860 40946 ft 487 kts 217°
2026-04-19 08:42 -3.12159 41.76832 40943 ft 487 kts 217°
2026-04-19 08:42 -3.17621 41.72798 40943 ft 487 kts 217°
2026-04-19 08:43 -3.23077 41.68767 40944 ft 487 kts 217°
2026-04-19 08:43 -3.28502 41.64759 40945 ft 487 kts 217°
2026-04-19 08:44 -3.33958 41.60727 40943 ft 487 kts 217°
2026-04-19 08:44 -3.39419 41.56691 40944 ft 487 kts 217°
2026-04-19 08:45 -3.44880 41.52655 40945 ft 488 kts 217°
2026-04-19 08:45 -3.50334 41.48623 40944 ft 487 kts 217°
2026-04-19 08:46 -3.55774 41.44600 40944 ft 487 kts 217°
2026-04-19 08:46 -3.61226 41.40569 40944 ft 487 kts 217°
2026-04-19 08:47 -3.66671 41.36542 40946 ft 487 kts 217°
2026-04-19 08:47 -3.72120 41.32510 40947 ft 486 kts 217°
2026-04-19 08:48 -3.77510 41.28523 40944 ft 483 kts 217°
2026-04-19 08:48 -3.82907 41.24529 40947 ft 482 kts 217°
2026-04-19 08:49 -3.88305 41.20534 40946 ft 482 kts 217°
2026-04-19 08:49 -3.93695 41.16545 40946 ft 481 kts 217°
2026-04-19 08:50 -3.99120 41.12591 40942 ft 482 kts 213°
2026-04-19 08:50 -4.04806 41.09019 40949 ft 483 kts 212°
2026-04-19 08:51 -4.10505 41.05541 40951 ft 482 kts 211°
2026-04-19 08:51 -4.16243 41.02058 40949 ft 482 kts 211°
2026-04-19 08:52 -4.21984 40.98565 40949 ft 482 kts 211°
2026-04-19 08:52 -4.27717 40.95071 40948 ft 482 kts 211°
2026-04-19 08:53 -4.33453 40.91572 40947 ft 482 kts 212°
2026-04-19 08:53 -4.39197 40.88068 40950 ft 485 kts 211°
2026-04-19 08:54 -4.44965 40.84549 40950 ft 485 kts 211°
2026-04-19 08:54 -4.50690 40.81056 40952 ft 485 kts 211°
2026-04-19 08:55 -4.56459 40.77535 40953 ft 485 kts 211°
2026-04-19 08:55 -4.62221 40.74018 40954 ft 485 kts 212°
2026-04-19 08:56 -4.68000 40.70490 40949 ft 487 kts 212°
2026-04-19 08:56 -4.73787 40.66956 40949 ft 487 kts 212°
2026-04-19 08:57 -4.79590 40.63412 40955 ft 487 kts 212°
2026-04-19 08:57 -4.85075 40.59499 40955 ft 487 kts 218°
2026-04-19 08:58 -4.90416 40.55327 40952 ft 487 kts 219°
2026-04-19 08:58 -4.95748 40.51139 40786 ft 485 kts 218°
2026-04-19 08:59 -4.98406 40.49049 40541 ft 486 kts 218°
2026-04-19 08:59 -5.01067 40.46958 40302 ft 488 kts 218°
2026-04-19 08:59 -5.03747 40.44849 40064 ft 490 kts 218°
2026-04-19 08:59 -5.06430 40.42738 39823 ft 491 kts 218°
2026-04-19 09:00 -5.09117 40.40624 39308 ft 490 kts 219°
2026-04-19 09:00 -5.11797 40.38580 38611 ft 491 kts 214°
2026-04-19 09:00 -5.14689 40.36747 37849 ft 492 kts 211°
2026-04-19 09:00 -5.17633 40.34989 37158 ft 491 kts 211°
2026-04-19 09:01 -5.20569 40.33244 36470 ft 490 kts 211°
2026-04-19 09:01 -5.23508 40.31494 35777 ft 490 kts 210°
2026-04-19 09:01 -5.26442 40.29744 35062 ft 491 kts 210°
2026-04-19 09:01 -5.29388 40.27986 34320 ft 493 kts 210°
2026-04-19 09:02 -5.32353 40.26216 33433 ft 497 kts 210°
2026-04-19 09:02 -5.35324 40.24442 32539 ft 499 kts 209°
2026-04-19 09:02 -5.38284 40.22674 31664 ft 502 kts 209°
2026-04-19 09:02 -5.41289 40.20879 30934 ft 502 kts 210°
2026-04-19 09:03 -5.44276 40.19093 30307 ft 498 kts 209°
2026-04-19 09:03 -5.47252 40.17314 29626 ft 495 kts 209°
2026-04-19 09:03 -5.50199 40.15552 28971 ft 491 kts 209°
2026-04-19 09:03 -5.53120 40.13805 28335 ft 487 kts 209°
2026-04-19 09:04 -5.56020 40.12071 27719 ft 482 kts 210°
2026-04-19 09:04 -5.58885 40.10357 27110 ft 477 kts 209°
2026-04-19 09:04 -5.61724 40.08660 26488 ft 473 kts 209°
2026-04-19 09:04 -5.64538 40.06976 25887 ft 469 kts 209°
2026-04-19 09:05 -5.67330 40.05306 25283 ft 465 kts 209°
2026-04-19 09:05 -5.70103 40.03648 24689 ft 462 kts 210°
2026-04-19 09:05 -5.72856 40.02000 24075 ft 459 kts 209°
2026-04-19 09:05 -5.75594 40.00362 23460 ft 457 kts 209°
2026-04-19 09:06 -5.78315 39.98733 22782 ft 453 kts 209°
2026-04-19 09:06 -5.81008 39.97120 22160 ft 448 kts 209°
2026-04-19 09:06 -5.83679 39.95521 21547 ft 444 kts 210°
2026-04-19 09:06 -5.86316 39.93942 20934 ft 439 kts 209°
2026-04-19 09:07 -5.88898 39.92395 20331 ft 435 kts 209°
2026-04-19 09:07 -5.91486 39.90846 19728 ft 431 kts 209°
2026-04-19 09:07 -5.94052 39.89309 19106 ft 428 kts 209°
2026-04-19 09:07 -5.96601 39.87782 18492 ft 425 kts 209°
2026-04-19 09:08 -5.99140 39.86261 17813 ft 423 kts 209°
2026-04-19 09:08 -6.01654 39.84756 17172 ft 418 kts 209°
2026-04-19 09:08 -6.04143 39.83264 16534 ft 413 kts 209°
2026-04-19 09:08 -6.06598 39.81793 15924 ft 409 kts 209°
2026-04-19 09:09 -6.09026 39.80337 15329 ft 404 kts 208°
2026-04-19 09:09 -6.11402 39.78913 14742 ft 400 kts 208°
2026-04-19 09:09 -6.13780 39.77487 14132 ft 396 kts 208°
2026-04-19 09:09 -6.16135 39.76076 13492 ft 392 kts 208°
2026-04-19 09:10 -6.18437 39.74602 12784 ft 390 kts 212°
2026-04-19 09:10 -6.20662 39.73064 12159 ft 386 kts 212°
2026-04-19 09:10 -6.22857 39.71543 11556 ft 381 kts 212°
2026-04-19 09:10 -6.25017 39.70058 11231 ft 368 kts 211°
2026-04-19 09:11 -6.27084 39.68642 11111 ft 351 kts 211°
2026-04-19 09:11 -6.29063 39.67292 10986 ft 335 kts 211°
2026-04-19 09:11 -6.30947 39.66009 10864 ft 320 kts 211°
2026-04-19 09:11 -6.32772 39.64770 10727 ft 324 kts 211°
2026-04-19 09:12 -6.34775 39.63423 10370 ft 366 kts 211°
2026-04-19 09:12 -6.36953 39.61952 9994 ft 384 kts 211°
2026-04-19 09:12 -6.39183 39.60437 9759 ft 388 kts 211°
2026-04-19 09:12 -6.41415 39.58918 9515 ft 386 kts 211°
2026-04-19 09:13 -6.43633 39.57413 9369 ft 385 kts 211°
2026-04-19 09:13 -6.45846 39.55910 9219 ft 383 kts 211°
2026-04-19 09:13 -6.48046 39.54413 9070 ft 381 kts 211°
2026-04-19 09:13 -6.50237 39.52925 8953 ft 379 kts 211°
2026-04-19 09:14 -6.52423 39.51440 8894 ft 379 kts 211°
2026-04-19 09:14 -6.54610 39.49954 8848 ft 378 kts 211°
2026-04-19 09:14 -6.56791 39.48472 8594 ft 377 kts 211°
2026-04-19 09:14 -6.58877 39.47053 7984 ft 355 kts 211°
2026-04-19 09:15 -6.60876 39.45692 7059 ft 343 kts 211°
2026-04-19 09:15 -6.62844 39.44355 5932 ft 338 kts 211°
2026-04-19 09:15 -6.66598 39.41553 3979 ft 338 kts 219°
2026-04-19 09:16 -6.68293 39.39952 3516 ft 329 kts 222°
2026-04-19 09:16 -6.69864 39.38356 3355 ft 310 kts 223°
2026-04-19 09:16 -6.71334 39.36854 3254 ft 293 kts 223°
2026-04-19 09:16 -6.72727 39.35435 3129 ft 277 kts 223°
2026-04-19 09:17 -6.74051 39.34094 3027 ft 261 kts 222°
2026-04-19 09:17 -6.75292 39.32844 2997 ft 243 kts 222°
2026-04-19 09:17 -6.76451 39.31685 2928 ft 229 kts 222°
2026-04-19 09:17 -6.77567 39.30572 2632 ft 221 kts 221°
2026-04-19 09:18 -6.78609 39.29521 2327 ft 207 kts 222°
2026-04-19 09:18 -6.79583 39.28536 2052 ft 191 kts 221°
2026-04-19 09:18 -6.80498 39.27617 1797 ft 179 kts 222°
2026-04-19 09:18 -6.81341 39.26766 1536 ft 165 kts 220°
2026-04-19 09:19 -6.82117 39.25985 1363 ft 152 kts 219°
2026-04-19 09:19 -6.82835 39.25263 1158 ft 140 kts 221°
2026-04-19 09:19 -6.83512 39.24580 969 ft 136 kts 217°
2026-04-19 09:19 -6.84161 39.23931 809 ft 128 kts 223°
2026-04-19 09:20 -6.84811 39.23274 657 ft 136 kts 220°
2026-04-19 09:20 -6.85463 39.22616 478 ft 131 kts 222°
2026-04-19 09:20 -6.86112 39.21954 261 ft 131 kts 222°
2026-04-19 09:20 -6.86736 39.21332 183 ft 117 kts 224°
2026-04-19 09:21 -6.87190 39.20876 182 ft 44 kts 227°
2026-04-19 09:21 -6.87201 39.20750 184 ft 17 kts 315°
2026-04-19 09:21 -6.87105 39.20729 201 ft 16 kts 34°
2026-04-19 09:21 -6.87029 39.20798 184 ft 9 kts 44°
2026-04-19 09:22 -6.86973 39.20851 183 ft 13 kts 43°
2026-04-19 09:22 -6.86900 39.20921 183 ft 16 kts 43°
2026-04-19 09:22 -6.86814 39.21007 183 ft 19 kts 48°
2026-04-19 09:22 -6.86756 39.21073 183 ft 19 kts 48°
2026-04-19 09:23 -6.86667 39.21167 183 ft 18 kts 45°
2026-04-19 09:23 -6.86552 39.21284 182 ft 17 kts 45°
2026-04-19 09:23 -6.86470 39.21366 182 ft 9 kts 44°
2026-04-19 09:23 -6.86468 39.21368 182 ft 0 kts 44°
2026-04-19 09:35 -6.86441 39.21394 182 ft 19 kts 44°
2026-04-19 09:35 -6.86346 39.21492 181 ft 15 kts 54°